This is the latest recevied weather packets stored in our database for station/object F4IDZ-11. If no packets are shown the sender has not sent any weather packets the latest 10 day(s).
| Time | Temp. | Humidity | Pressure | Rain* | Wind** | Luminosity | Snow |
|---|---|---|---|---|---|---|---|
| 1778082232 | 19.44° C | 54% | 991.3 hPa | - | - | - | - |
| 1778081332 | 20° C | 54% | 991.5 hPa | - | - | - | - |
| 1778080432 | 19.44° C | 54% | 991.4 hPa | - | - | - | - |
| 1778079532 | 19.44° C | 54% | 991.3 hPa | - | - | - | - |
| 1778078631 | 18.89° C | 55% | 991.4 hPa | - | - | - | - |
| 1778077952 | 18.89° C | 55% | 991.4 hPa | - | - | - | - |
| 1778077052 | 19.44° C | 55% | 991.4 hPa | - | - | - | - |
| 1778076152 | 19.44° C | 55% | 991.4 hPa | - | - | - | - |
| 1778075252 | 19.44° C | 54% | 991.5 hPa | - | - | - | - |
| 1778074351 | 18.89° C | 55% | 991.4 hPa | - | - | - | - |
| 1778073451 | 18.33° C | 55% | 991.4 hPa | - | - | - | - |
| 1778072552 | 17.78° C | 56% | 991.5 hPa | - | - | - | - |
| 1778072551 | 17.78° C | 56% | 991.5 hPa | - | - | - | - |
| 1778071651 | 17.22° C | 56% | 991.4 hPa | - | - | - | - |
| 1778070751 | 17.22° C | 56% | 991.4 hPa | - | - | - | - |
| 1778069850 | 17.22° C | 56% | 991.2 hPa | - | - | - | - |
| 1778068950 | 17.22° C | 56% | 991.2 hPa | - | - | - | - |
| 1778068050 | 16.67° C | 56% | 991.3 hPa | - | - | - | - |
| 1778067150 | 16.67° C | 56% | 991.3 hPa | - | - | - | - |
| 1778066250 | 16.11° C | 57% | 991.1 hPa | - | - | - | - |
| 1778065350 | 15.56° C | 57% | 991 hPa | - | - | - | - |
| 1778064449 | 15.56° C | 58% | 991.1 hPa | - | - | - | - |
| 1778063549 | 15° C | 57% | 991 hPa | - | - | - | - |
| 1778062649 | 14.44° C | 58% | 991.2 hPa | - | - | - | - |
| 1778061749 | 14.44° C | 58% | 991.1 hPa | - | - | - | - |
* Rain since midnight (hover to see other rain measurements)
** Current wind speed in m/s (hover to see current wind gust speed)